Location: Shell Point
(30.0571°N, 84.2896°W)
Time: 09:44:03
(UTC-04:00)

Meteor 2-19 Rocket - Visible Passes

Search period start: 26 August 2016 00:00
Search period end: 05 September 2016 00:00
Orbit: 935 x 960 km, 82.5° (Epoch: 25 August)

Date Brightness Start Highest point End Pass type
(mag) Time Alt. Az. Time Alt. Az. Time Alt. Az.
26 Aug 7.6 05:53:52 10° NE 05:56:51 14° ENE 05:59:49 10° ESE visible
26 Aug 7.1 20:56:03 10° SW 21:00:41 23° WNW 21:05:20 10° NNW visible
27 Aug 7.0 06:09:19 10° NNE 06:14:05 24° ENE 06:18:52 10° SE visible
27 Aug 7.7 21:15:14 10° W 21:17:57 13° WNW 21:20:39 10° NW visible
28 Aug 6.1 06:25:35 10° NNE 06:31:15 39° E 06:36:54 10° SSE visible
29 Aug 5.0 06:42:15 10° N 06:48:18 66° E 06:54:22 10° SSE visible
30 Aug 7.7 05:18:15 10° NE 05:19:57 11° ENE 05:21:39 10° E visible
30 Aug 7.0 20:18:48 10° SW 20:23:49 27° WNW 20:28:52 10° NNW visible
31 Aug 7.1 05:32:55 10° NNE 05:37:15 20° ENE 05:41:32 10° ESE visible
31 Aug 7.6 20:37:28 10° WSW 20:41:03 16° WNW 20:44:38 10° NW visible
01 Sep 6.3 05:48:59 10° NNE 05:54:26 33° E 05:59:51 10° SE visible
02 Sep 5.2 06:05:33 10° N 06:11:31 55° E 06:17:30 10° SSE visible
03 Sep 4.5 06:22:23 10° N 06:28:31 89° W 06:34:40 10° S visible
04 Sep 7.2 04:56:39 10° NE 05:00:22 16° ENE 05:04:05 10° ESE visible
04 Sep 4.6 06:39:32 10° NNW 06:45:27 54° W 06:51:23 10° SSW visible
